Regional Weather Roundup
Issued by NWS

Home | Current Version | Previous Version | Text Only | Print | Product List | Glossary On
Versions: 1 2 3 4 5 6 7 8 9 10 11 12 13 14 15 16 17 18 19 20 21 22 23 24 25 26 27 28 29 30 31 32 33 34 35 36 37 38 39 40 41 42 43 44 45 46 47 48 49 50
750
ASHW40 PHFO 270843
RWRHI

WEATHER ROUNDUP FOR HAWAII
NATIONAL WEATHER SERVICE HONOLULU HI
1000 PM HST THU MAY 26 2016

THIS IS AN AUTOMATED REPORT THAT HAS NOT BEEN QUALITY CONTROLLED.

NOTE..."FAIR" INDICATES FEW OR NO CLOUDS BELOW 12,000 FEET WITH NO
SIGNIFICANT WEATHER AND/OR OBSTRUCTIONS TO VISIBILITY.

* - THESE SITES REPORT LIMITED FIELDS

HIZ001>004-270900-
KAUAI-NIIHAU-

CITY           SKY/WX    TMP DP  RH WIND       PRES   REMARKS
LIHUE APT      MOCLDY    75  70  84 E13       30.12R
PORT ALLEN*      N/A     75 N/A N/A NE9         N/A
POIPU*           N/A     77 N/A N/A NE7         N/A
PRINCEVILLE*     N/A     73 N/A N/A SE5         N/A
KOKOLE POINT*  NOT AVBL
MOLOAA DAIRY*    N/A     75  70  83 SE7         N/A
WAIMEA HTS*      N/A     73  66  78 NE5G15      N/A
PUU OPAE*        N/A     66  63  88 CALM        N/A
PUU LUA*       NOT AVBL
MAKAHA RIDGE*    N/A     68  64  88 E2          N/A
$$

HIZ005>011-270900-
OAHU-

CITY           SKY/WX    TMP DP  RH WIND       PRES   REMARKS
HONOLULU       PTCLDY    75  70  84 NE6       30.10R
KALAELOA       MOCLDY    75  70  84 NE3       30.12R
KANEOHE MCB    PTCLDY    77  70  79 VRB6      30.09R
WHEELER FIELD  FAIR      71  70  95 VRB3      30.11
BELLOWS*         N/A    N/A N/A N/A E15         N/A
KAHUKU*          N/A    N/A N/A N/A VRB9G16     N/A
WHEELER*         N/A    N/A N/A N/A S5          N/A
WAIANAE HARBOR   N/A    N/A N/A N/A E5          N/A
DILLINGHAM*      N/A     82  79  89 MISG        N/A  HX  93
KAHUKU TRN*      N/A     72  68  88 CALM        N/A
KAWAILOA*        N/A     70  66  88 E7G13       N/A
KII*             N/A     77  72  83 E15G21      N/A
MAKUA RANGE*     N/A     72  68  88 E5          N/A
OAHU FOREST NW NOT AVBL
SCHOFIELD BRK*   N/A     81  77  89 MISG        N/A
SCHOFIELD S*   NOT AVBL
WAIANAE VLY*   NOT AVBL
KUAOKALA*        N/A    N/A N/A N/A MISG        N/A
HONOULIUULI*   NOT AVBL
MOKUOLOE IS*   NOT AVBL
PALEHUA*         N/A     64  64 100 NE13G18     N/A
WAIAWA PHB*    NOT AVBL
$$

HIZ012>013-270900-
MOLOKAI-

CITY           SKY/WX    TMP DP  RH WIND       PRES   REMARKS
MOLOKAI AIRPT  CLEAR     72  66  81 CALM      30.12R
KALAUPAPA      NOT AVBL
MAKAPULAPAI*     N/A     75  70  83 E16G26      N/A
MOLOKAI 1*     NOT AVBL
PUU ALII*        N/A     59  59 100 NE3G18      N/A
$$

HIZ016-270900-
KAHOOLAWE-

CITY           SKY/WX    TMP DP  RH WIND       PRES   REMARKS
KAHOOLAWE*       N/A     70 N/A N/A E1          N/A
HAKIOAWA*        N/A     88  84  87 MISG      30.51F HX 111
HONOKANAIA*      N/A     78  69  73 NE14G29   30.03R
KANELOA*         N/A     73  68  83 E17G29    30.16R
KEALIALALO*    NOT AVBL
LUA MAKIKA*    NOT AVBL
$$

HIZ014>015-270900-
LANAI-

CITY           SKY/WX    TMP DP  RH WIND       PRES   REMARKS
LANAI CITY     MOCLDY    70  66  88 NW3       30.16S
LANAI 1*       NOT AVBL
$$

HIZ017>028-270900-
MAUI-

CITY           SKY/WX    TMP DP  RH WIND       PRES   REMARKS
KAHULUI        CLOUDY    75  65  70 E5        30.09R
KAPALUA-W MAUI NOT AVBL
HANA AIRPORT   NOT AVBL
HANA*            N/A     73 N/A N/A S3          N/A
HALEAKALA SUMM   N/A     45  16  31 E8          N/A
MAALAEA BAY*     N/A     77 N/A N/A VRB12G22    N/A
HALEAKALA*     NOT AVBL
KAUPO GAP*       N/A     63  55  77 N10G20      N/A
KULA 1*          N/A     51  45  80 E3          N/A
$$

HIZ023>026-270900-
BIG ISLAND OF HAWAII COAST AND LOWER SLOPES-

CITY           SKY/WX    TMP DP  RH WIND       PRES   REMARKS
KAILUA KONA    CLEAR     77  71  82 SE6       30.07R
HILO           PTCLDY    74  69  85 SW3       30.13R
HONOKAA*         N/A     68 N/A N/A VRB1        N/A
KAWAIHAE MWT*    N/A     79 N/A N/A NE7         N/A
KAWAIHAE*        N/A     79 N/A N/A NE3       30.07R
SOUTH POINT*     N/A     72 N/A N/A N17G26      N/A
UPOLU AIRPORT*   N/A    N/A N/A N/A NE17G25     N/A
KAMUELA*       SUNNY     63  59  88 NE12      30.20R
HAKALAU*         N/A     50  50  99 S3          N/A
KALOKO-HONOKO*   N/A     77  68  73 CALM      30.06S
PALI 2*          N/A     64  59  82 S10G18      N/A
KEALAKOMO*       N/A     75  64  69 NE10G18     N/A
KAUPULEHU*       N/A     72  66  83 SW7G13      N/A
KAPAPALA*        N/A     63  61  92 N3          N/A
LOWER KAHUKU*    N/A     63 -40   1 VRB3G9      N/A
PUHE CS*         N/A     79  66  65 NE3         N/A
PUHO CS*         N/A     75  69  81 E2G8        N/A
PTA KEAMUKU*     N/A    N/A N/A N/A CALM        N/A
WAIKOLOA*        N/A     72  61  68 E9G18       N/A
$$

HIZ027>028-270900-
BIG ISLAND OF HAWAII INTERIOR AND SUMMMITS-

CITY           SKY/WX    TMP DP  RH WIND       PRES   REMARKS
BRADSHAW FIELD CLOUDY    53  49  85 SE2       30.40R
MK VISITOR CEN   N/A     45  36  70 N2          N/A
MAUNA KEA*       N/A     34  -2  21 N24         N/A  WCI  21
MAUNA LOA*       N/A     41  32  70 MISG        N/A
MAUNA LOA 1*   NOT AVBL
PTA KIPUKA*      N/A     66  66 100 E3          N/A
PTA RANGE 17*    N/A     64  59  82 E9G15       N/A
PTA WEST*        N/A     66  64  94 E5          N/A
NENE CABIN*      N/A     50  50 100 E3          N/A
AHUMOA*          N/A     51  49  94 E3          N/A
PTA PORTABLE*  NOT AVBL
PUU MALI*        N/A     54  34  47 SE5         N/A
$$

HIC003-270900-
NORTHWEST ISLANDS-

CITY           SKY/WX    TMP DP  RH WIND       PRES   REMARKS
MIDWAY ISLAND  PTCLDY    73  72  94 NE5       30.11R
MIDWAY NOS*      N/A     73 N/A N/A MISG      30.10S
FRENCH FRIGATE NOT AVBL
$$

PHZ110>124-180-270900-
BUOY REPORTS

STATION/POSITION TIME  TEMP    WIND        PRES    WAVE   SWELL
                       AIR SEA DIR/SP/G            HT/PER HT/DIR
                 (UTC) (F)     (DEG/KT/KT) (MB)    (FT/S) (FT/D)
BUOY 51001       0800   78 80   50/ 12/ 14 1018.1R
BUOY 51101       0750   77 78   90/  8/ 10 1019.5R   4/ 8   5/ 30
BUOY 51100       NOT AVBL
BUOY 51002       0750   78 79  100/ 16/ 17 1017.7R   6/ 7   3/180
BUOY 51003       0750   78 80  110/  8/ 10 1018.3R   4/17   3/180
BUOY 51004       0750   76 79   50/ 12/ 14 1018.7R   6/ 8   5/ 70
BARBERS PT BUOY  NOT AVBL
WAIMEA BAY BUOY  0804      78                N/A     2/ 8
KAILUA BAY BUOY  0711      78                N/A     4/ 5   2/120
LANAI BUOY       0815      79                N/A     3/18   2/220
BARBERS PT 2     0803      80                N/A     3/18   2/200
PAUWELA MAUI     0809      78                N/A     5/ 7
HILO             0812      79                N/A     4/ 8
KANEOHE BAY BUOY 0806      78                N/A     3/ 5
HANALEI KAUAI    NOT AVBL
KAHULUI HARBOR   0800   76 80   80/  5/  9 1018.8R
HONOLULU HARBOR  0800   76 79   CALM  /  2 1020.1R
KILO NALU        NOT AVBL
HILO HARBOR      0800   74 78  210/  4/  5 1019.9R
MOKUOLOE         0700   78 80  110/ 11/ 14 1019.3R
NAWILIWILI       0800   77 83   80/ 12/ 14 1019.5R
WHOTS BUOY       NOT AVBL
BUOY 51028       NOT AVBL
$$

......................KEY........................................
  SKY/WX - SKY CONDITIONS/PRESENT WEATHER
  TMP    - TEMPERATURE IN FAHRENHEIT
  DWPT   - DEWPOINT IN FAHRENHEIT
  RH     - RELATIVE HUMIDITY IN PERCENT
  WIND   - DIRECTION AND SPEED /MPH FOR ISLANDS...KTS FOR BUOYS/
  PRES   - MEAN SEA LEVEL PRESSURE IN INCHES OF HG
  VSB    - VISIBILITY IN MILES
  HX     - HEAT INDEX
  WCI    - WIND CHILL INDEX
  VRB    - VARIABLE WIND DIRECTION
  N/A    - NOT AVAILABLE




USA.gov is the U.S. government's official web portal to all federal, state and local government web resources and services.